| time (UTC) | temp C | wind direction | speed KPH | gust KPH | rain 1hr cm | rain 24hr cm | rain mn cm | humidity % | barometer mb |
| 20260505124602 | 17 | 254 | 3.2 | 12.9 | 0.00 | 0.00 | 0.00 | 59 | 1008.1 |
| 20260505124043 | 17 | 74 | 3.2 | 11.3 | 0.00 | 0.00 | 0.00 | 62 | 1008.2 |
| 20260505123543 | 17 | 166 | 3.2 | 9.7 | 0.00 | 0.00 | 0.00 | 63 | 1008.2 |
| 20260505123113 | 16 | 221 | 1.6 | 12.9 | 0.00 | 0.00 | 0.00 | 63 | 1008.2 |
| 20260505122543 | 16 | 191 | 6.4 | 12.9 | 0.00 | 0.00 | 0.00 | 59 | 1008.2 |
| 20260505122043 | 16 | 220 | 4.8 | 12.9 | 0.00 | 0.00 | 0.00 | 61 | 1008.2 |
| 20260505121551 | 16 | 282 | 3.2 | 12.9 | 0.00 | 0.00 | 0.00 | 61 | 1008.0 |
| 20260505121046 | 16 | 158 | 3.2 | 11.3 | 0.00 | 0.00 | 0.00 | 63 | 1008.1 |
| 20260505120544 | 16 | 209 | 3.2 | 12.9 | 0.00 | 0.00 | 0.00 | 63 | 1008.0 |
| 20260505115543 | 15 | 254 | 3.2 | 9.7 | 0.00 | 0.00 | 0.00 | 66 | 1007.9 |
| 20260505115046 | 15 | 200 | 1.6 | 8.0 | 0.00 | 0.00 | 0.00 | 65 | 1007.9 |
| 20260505114549 | 15 | 213 | 3.2 | 11.3 | 0.00 | 0.00 | 0.00 | 66 | 1008.0 |
| 20260505114045 | 15 | 225 | 3.2 | 11.3 | 0.00 | 0.00 | 0.00 | 66 | 1008.0 |
| 20260505113544 | 15 | 221 | 3.2 | 8.0 | 0.00 | 0.00 | 0.00 | 66 | 1008.2 |
| 20260505113054 | 14 | 232 | 3.2 | 8.0 | 0.00 | 0.00 | 0.00 | 67 | 1008.1 |
| 20260505112545 | 14 | 210 | 1.6 | 8.0 | 0.00 | 0.00 | 0.00 | 67 | 1008.2 |
| 20260505112043 | 14 | 146 | 1.6 | 6.4 | 0.00 | 0.00 | 0.00 | 68 | 1008.2 |
| 20260505111549 | 13 | 0 | 0.0 | 11.3 | 0.00 | 0.00 | 0.00 | 69 | 1008.1 |
| 20260505111044 | 13 | 0 | 3.2 | 11.3 | 0.00 | 0.00 | 0.00 | 69 | 1008.2 |
| 20260505110545 | 13 | 0 | 0.0 | 6.4 | 0.00 | 0.00 | 0.00 | 71 | 1008.2 |
| 20260505110111 | 12 | 0 | 0.0 | 4.8 | 0.00 | 0.00 | 0.00 | 71 | 1008.1 |
| 20260505102043 | 11 | 0 | 0.0 | 0.0 | 0.00 | 0.00 | 0.00 | 74 | 1008.2 |
| 20260505101553 | 11 | 0 | 0.0 | 0.0 | 0.00 | 0.00 | 0.00 | 74 | 1008.2 |
| 20260505101045 | 11 | 0 | 0.0 | 0.0 | 0.00 | 0.00 | 0.00 | 74 | 1008.2 |
| 20260505100544 | 11 | 0 | 0.0 | 0.0 | 0.00 | 0.00 | 0.00 | 75 | 1008.1 |
| 20260505100051 | 10 | 0 | 0.0 | 1.6 | 0.00 | 0.00 | 0.00 | 75 | 1008.1 |
| 20260505095542 | 10 | 0 | 0.0 | 1.6 | 0.00 | 0.00 | 0.00 | 75 | 1008.2 |
| 20260505095043 | 10 | 0 | 0.0 | 3.2 | 0.00 | 0.00 | 0.00 | 76 | 1008.2 |
| 20260505094549 | 10 | 0 | 0.0 | 3.2 | 0.00 | 0.00 | 0.00 | 76 | 1008.2 |
| 20260505094043 | 10 | 0 | 0.0 | 3.2 | 0.00 | 0.00 | 0.00 | 75 | 1008.2 |
| 20260505093543 | 10 | 0 | 0.0 | 1.6 | 0.00 | 0.00 | 0.00 | 75 | 1008.3 |
| 20260505093047 | 10 | 0 | 0.0 | 1.6 | 0.00 | 0.00 | 0.00 | 75 | 1008.3 |
| 20260505092544 | 10 | 0 | 0.0 | 0.0 | 0.00 | 0.00 | 0.00 | 75 | 1008.2 |
| 20260505092045 | 10 | 0 | 0.0 | 0.0 | 0.00 | 0.00 | 0.00 | 75 | 1008.2 |
| 20260505091552 | 10 | 0 | 0.0 | 0.0 | 0.00 | 0.00 | 0.00 | 75 | 1008.2 |
| 20260505091043 | 10 | 0 | 0.0 | 0.0 | 0.00 | 0.00 | 0.00 | 74 | 1008.2 |
| 20260505090543 | 10 | 0 | 0.0 | 0.0 | 0.00 | 0.00 | 0.00 | 74 | 1008.2 |
| 20260505090050 | 10 | 0 | 0.0 | 0.0 | 0.00 | 0.00 | 0.00 | 74 | 1008.1 |
| 20260505085543 | 10 | 0 | 0.0 | 0.0 | 0.00 | 0.00 | 0.00 | 74 | 1008.1 |
| 20260505085043 | 10 | 0 | 0.0 | 3.2 | 0.00 | 0.00 | 0.00 | 73 | 1008.2 |
| 20260505084549 | 11 | 0 | 0.0 | 3.2 | 0.00 | 0.00 | 0.00 | 73 | 1008.3 |
| 20260505084042 | 11 | 0 | 0.0 | 3.2 | 0.00 | 0.00 | 0.00 | 72 | 1008.2 |
| 20260505083547 | 11 | 0 | 0.0 | 1.6 | 0.00 | 0.00 | 0.00 | 72 | 1008.3 |
| 20260505083050 | 11 | 0 | 0.0 | 4.8 | 0.00 | 0.00 | 0.00 | 72 | 1008.5 |
| 20260505082543 | 11 | 0 | 0.0 | 4.8 | 0.00 | 0.00 | 0.00 | 71 | 1008.5 |
| 20260505082045 | 11 | 0 | 0.0 | 3.2 | 0.00 | 0.00 | 0.00 | 70 | 1008.6 |
| 20260505081554 | 11 | 0 | 0.0 | 3.2 | 0.00 | 0.00 | 0.00 | 70 | 1008.6 |
| 20260505081044 | 11 | 184 | 1.6 | 3.2 | 0.00 | 0.00 | 0.00 | 69 | 1008.6 |
| 20260505080543 | 11 | 0 | 0.0 | 3.2 | 0.00 | 0.00 | 0.00 | 69 | 1008.6 |
| 20260505080050 | 11 | 0 | 0.0 | 3.2 | 0.00 | 0.00 | 0.00 | 68 | 1008.7 |
| 20260505075545 | 11 | 0 | 0.0 | 3.2 | 0.00 | 0.00 | 0.00 | 68 | 1008.7 |
| 20260505075043 | 11 | 184 | 0.0 | 3.2 | 0.00 | 0.00 | 0.00 | 67 | 1008.7 |
| 20260505074549 | 12 | 0 | 0.0 | 3.2 | 0.00 | 0.00 | 0.00 | 67 | 1008.7 |
| 20260505074043 | 12 | 0 | 1.6 | 3.2 | 0.00 | 0.00 | 0.00 | 67 | 1008.7 |
| 20260505073543 | 12 | 0 | 1.6 | 3.2 | 0.00 | 0.00 | 0.00 | 67 | 1008.8 |
| 20260505073052 | 12 | 0 | 0.0 | 4.8 | 0.00 | 0.00 | 0.00 | 66 | 1008.7 |
| 20260505072542 | 12 | 0 | 0.0 | 4.8 | 0.00 | 0.00 | 0.00 | 66 | 1008.7 |
| 20260505072046 | 12 | 184 | 0.0 | 4.8 | 0.00 | 0.00 | 0.00 | 66 | 1008.7 |
| 20260505071554 | 12 | 173 | 1.6 | 8.0 | 0.00 | 0.00 | 0.00 | 65 | 1008.6 |
| 20260505071042 | 12 | 0 | 0.0 | 8.0 | 0.00 | 0.00 | 0.00 | 65 | 1008.6 |
| 20260505070545 | 12 | 162 | 0.0 | 3.2 | 0.00 | 0.00 | 0.00 | 64 | 1008.6 |
| 20260505070050 | 12 | 0 | 0.0 | 3.2 | 0.00 | 0.00 | 0.00 | 64 | 1008.7 |
| 20260505065542 | 12 | 0 | 0.0 | 9.7 | 0.00 | 0.00 | 0.00 | 63 | 1008.7 |
| 20260505065041 | 13 | 0 | 1.6 | 9.7 | 0.00 | 0.00 | 0.00 | 62 | 1008.6 |
| 20260505064550 | 12 | 194 | 1.6 | 9.7 | 0.00 | 0.00 | 0.00 | 63 | 1008.6 |
| 20260505064042 | 12 | 184 | 1.6 | 8.0 | 0.00 | 0.00 | 0.00 | 63 | 1008.7 |
| 20260505063542 | 12 | 169 | 0.0 | 8.0 | 0.00 | 0.00 | 0.00 | 64 | 1008.6 |
| 20260505063058 | 12 | 172 | 0.0 | 8.0 | 0.00 | 0.00 | 0.00 | 63 | 1008.6 |
| 20260505062542 | 12 | 206 | 1.6 | 6.4 | 0.00 | 0.00 | 0.00 | 63 | 1008.7 |
| 20260505062043 | 13 | 206 | 3.2 | 8.0 | 0.00 | 0.00 | 0.00 | 62 | 1008.6 |
| 20260505061606 | 13 | 179 | 1.6 | 8.0 | 0.00 | 0.00 | 0.00 | 62 | 1008.6 |
| 20260505061042 | 13 | 215 | 3.2 | 8.0 | 0.00 | 0.00 | 0.00 | 62 | 1008.6 |
| 20260505060545 | 13 | 217 | 1.6 | 9.7 | 0.00 | 0.00 | 0.00 | 62 | 1008.7 |
| 20260505060056 | 13 | 194 | 1.6 | 9.7 | 0.00 | 0.00 | 0.00 | 62 | 1008.6 |
| 20260505055542 | 13 | 194 | 3.2 | 9.7 | 0.00 | 0.00 | 0.00 | 60 | 1008.7 |
| 20260505055042 | 13 | 234 | 4.8 | 11.3 | 0.00 | 0.00 | 0.00 | 60 | 1008.8 |
| 20260505054555 | 13 | 178 | 1.6 | 11.3 | 0.00 | 0.00 | 0.00 | 60 | 1008.8 |
| 20260505054043 | 13 | 205 | 0.0 | 4.8 | 0.00 | 0.00 | 0.00 | 60 | 1008.8 |
| 20260505053542 | 13 | 213 | 1.6 | 6.4 | 0.00 | 0.00 | 0.00 | 59 | 1008.8 |
| 20260505053102 | 13 | 193 | 3.2 | 9.7 | 0.00 | 0.00 | 0.00 | 59 | 1008.7 |
| 20260505052544 | 13 | 175 | 3.2 | 11.3 | 0.00 | 0.00 | 0.00 | 59 | 1008.6 |
| 20260505052044 | 13 | 220 | 1.6 | 12.9 | 0.00 | 0.00 | 0.00 | 58 | 1008.7 |
| 20260505051550 | 13 | 234 | 0.0 | 12.9 | 0.00 | 0.00 | 0.00 | 58 | 1008.8 |
| 20260505051044 | 13 | 274 | 3.2 | 11.3 | 0.00 | 0.00 | 0.00 | 57 | 1008.8 |
| 20260505050543 | 13 | 205 | 3.2 | 12.9 | 0.00 | 0.00 | 0.00 | 58 | 1008.8 |
| 20260505041553 | 15 | 219 | 1.6 | 8.0 | 0.00 | 0.00 | 0.00 | 54 | 1008.8 |
| 20260505041041 | 15 | 221 | 3.2 | 11.3 | 0.00 | 0.00 | 0.00 | 53 | 1008.6 |
| 20260505040543 | 15 | 201 | 3.2 | 12.9 | 0.00 | 0.00 | 0.00 | 53 | 1008.7 |
| 20260505040055 | 15 | 209 | 3.2 | 12.9 | 0.00 | 0.00 | 0.00 | 53 | 1008.6 |
| 20260505035542 | 15 | 184 | 3.2 | 9.7 | 0.00 | 0.00 | 0.00 | 54 | 1008.5 |
| 20260505035043 | 15 | 217 | 1.6 | 8.0 | 0.00 | 0.00 | 0.00 | 53 | 1008.5 |
| 20260505034554 | 15 | 223 | 1.6 | 12.9 | 0.00 | 0.00 | 0.00 | 54 | 1008.4 |
| 20260505034044 | 15 | 216 | 1.6 | 14.5 | 0.00 | 0.00 | 0.00 | 52 | 1008.4 |
| 20260505033544 | 15 | 175 | 4.8 | 14.5 | 0.00 | 0.00 | 0.00 | 51 | 1008.4 |
| 20260505033130 | 15 | 225 | 4.8 | 24.1 | 0.00 | 0.00 | 0.00 | 52 | 1008.4 |
| 20260505032544 | 15 | 223 | 6.4 | 24.1 | 0.00 | 0.00 | 0.00 | 51 | 1008.4 |
| 20260505032044 | 15 | 207 | 4.8 | 12.9 | 0.00 | 0.00 | 0.00 | 52 | 1008.3 |
| 20260505031546 | 15 | 218 | 4.8 | 12.9 | 0.00 | 0.00 | 0.00 | 51 | 1008.4 |
| 20260505031043 | 16 | 180 | 4.8 | 14.5 | 0.00 | 0.00 | 0.00 | 52 | 1008.2 |
| 20260505030543 | 16 | 205 | 3.2 | 19.3 | 0.00 | 0.00 | 0.00 | 51 | 1008.3 |
| 20260505030052 | 15 | 186 | 3.2 | 19.3 | 0.00 | 0.00 | 0.00 | 53 | 1008.4 |
| 20260505025546 | 16 | 225 | 3.2 | 14.5 | 0.00 | 0.00 | 0.00 | 51 | 1008.3 |
| 20260505025044 | 16 | 251 | 3.2 | 14.5 | 0.00 | 0.00 | 0.00 | 51 | 1008.3 |
| 20260505024551 | 16 | 193 | 6.4 | 14.5 | 0.00 | 0.00 | 0.00 | 50 | 1008.3 |
| 20260505024045 | 16 | 229 | 6.4 | 14.5 | 0.00 | 0.00 | 0.00 | 49 | 1008.3 |
| 20260505023544 | 16 | 156 | 1.6 | 14.5 | 0.00 | 0.00 | 0.00 | 49 | 1008.2 |
| 20260505023055 | 16 | 193 | 4.8 | 14.5 | 0.00 | 0.00 | 0.00 | 49 | 1008.3 |
| 20260505022545 | 16 | 185 | 4.8 | 14.5 | 0.00 | 0.00 | 0.00 | 48 | 1008.2 |
| 20260505022044 | 16 | 314 | 4.8 | 17.7 | 0.00 | 0.00 | 0.00 | 49 | 1008.2 |
| 20260505021549 | 16 | 202 | 4.8 | 17.7 | 0.00 | 0.00 | 0.00 | 48 | 1008.2 |
| 20260505021044 | 17 | 226 | 6.4 | 11.3 | 0.00 | 0.00 | 0.00 | 49 | 1008.1 |
| 20260505020544 | 17 | 162 | 4.8 | 12.9 | 0.00 | 0.00 | 0.00 | 47 | 1008.1 |
| 20260505020047 | 17 | 233 | 4.8 | 12.9 | 0.00 | 0.00 | 0.00 | 47 | 1008.1 |
| 20260505015544 | 17 | 190 | 4.8 | 17.7 | 0.00 | 0.00 | 0.00 | 47 | 1008.0 |
| 20260505015044 | 17 | 201 | 4.8 | 22.5 | 0.00 | 0.00 | 0.00 | 47 | 1007.8 |
| 20260505014553 | 17 | 199 | 4.8 | 22.5 | 0.00 | 0.00 | 0.00 | 46 | 1007.8 |
| 20260505014045 | 17 | 294 | 4.8 | 16.1 | 0.00 | 0.00 | 0.00 | 47 | 1007.8 |
| 20260505013543 | 17 | 219 | 4.8 | 20.9 | 0.00 | 0.00 | 0.00 | 45 | 1007.7 |
| 20260505013054 | 17 | 219 | 4.8 | 20.9 | 0.00 | 0.00 | 0.00 | 45 | 1007.5 |
| 20260505012543 | 17 | 209 | 4.8 | 14.5 | 0.00 | 0.00 | 0.00 | 45 | 1007.5 |
| 20260505012048 | 17 | 0 | 4.8 | 17.7 | 0.00 | 0.00 | 0.00 | 45 | 1007.4 |
| 20260505011553 | 17 | 208 | 3.2 | 17.7 | 0.00 | 0.00 | 0.00 | 43 | 1007.2 |
| 20260505011048 | 17 | 0 | 0.0 | 0.0 | 0.00 | 0.00 | 0.00 | 43 | 1007.1 |
| 20260505010544 | 17 | 0 | 0.0 | 0.0 | 0.00 | 0.00 | 0.00 | 41 | 1006.8 |
| 20260505010101 | 17 | 0 | 0.0 | 0.0 | 0.00 | 0.00 | 0.00 | 42 | 1006.8 |
| 20260505005544 | 17 | 0 | 0.0 | 4.8 | 0.00 | 0.00 | 0.00 | 43 | 1006.6 |
| 20260505005043 | 16 | 0 | 0.0 | 4.8 | 0.00 | 0.00 | 0.00 | 44 | 1006.6 |
| 20260505004550 | 16 | 166 | 0.0 | 0.0 | 0.00 | 0.00 | 0.00 | 44 | 1006.5 |
| 20260505004044 | 16 | 0 | 0.0 | 0.0 | 0.00 | 0.00 | 0.00 | 43 | 1006.4 |
| 20260505003543 | 17 | 0 | 0.0 | 0.0 | 0.00 | 0.00 | 0.00 | 42 | 1006.3 |
| 20260505003059 | 17 | 0 | 0.0 | 0.0 | 0.00 | 0.00 | 0.00 | 41 | 1006.1 |
| 20260505002544 | 17 | 0 | 0.0 | 0.0 | 0.00 | 0.00 | 0.00 | 40 | 1006.2 |
| 20260505002044 | 17 | 0 | 0.0 | 0.0 | 0.00 | 0.00 | 0.00 | 40 | 1006.0 |
| 20260505001551 | 18 | 0 | 0.0 | 0.0 | 0.00 | 0.00 | 0.00 | 38 | 1005.9 |
| 20260505001042 | 18 | 0 | 0.0 | 1.6 | 0.00 | 0.00 | 0.00 | 38 | 1005.9 |
| 20260505000541 | 18 | 0 | 0.0 | 4.8 | 0.00 | 0.00 | 0.00 | 38 | 1005.8 |
| 20260504235542 | 18 | 166 | 0.0 | 4.8 | 0.00 | 0.00 | 0.00 | 36 | 1005.8 |
| 20260504235042 | 19 | 0 | 0.0 | 6.4 | 0.00 | 0.00 | 0.00 | 36 | 1005.7 |
| 20260504234548 | 19 | 0 | 0.0 | 8.0 | 0.00 | 0.00 | 0.00 | 36 | 1005.6 |
| 20260504234041 | 19 | 165 | 1.6 | 8.0 | 0.00 | 0.00 | 0.00 | 36 | 1005.6 |
| 20260504233543 | 20 | 220 | 0.0 | 3.2 | 0.00 | 0.00 | 0.00 | 34 | 1005.5 |
| 20260504233053 | 20 | 0 | 0.0 | 6.4 | 0.00 | 0.00 | 0.00 | 34 | 1005.5 |
| 20260504232542 | 20 | 0 | 0.0 | 9.7 | 0.00 | 0.00 | 0.00 | 34 | 1005.5 |
| 20260504232042 | 20 | 0 | 0.0 | 9.7 | 0.00 | 0.00 | 0.00 | 33 | 1005.4 |
| 20260504231549 | 21 | 220 | 3.2 | 8.0 | 0.00 | 0.00 | 0.00 | 32 | 1005.2 |
| 20260504231039 | 21 | 304 | 1.6 | 8.0 | 0.00 | 0.00 | 0.00 | 31 | 1005.1 |
| 20260504230541 | 21 | 298 | 1.6 | 8.0 | 0.00 | 0.00 | 0.00 | 33 | 1005.0 |
| 20260504230049 | 21 | 248 | 1.6 | 16.1 | 0.00 | 0.00 | 0.00 | 31 | 1004.9 |
| 20260504225538 | 21 | 0 | 3.2 | 16.1 | 0.00 | 0.00 | 0.00 | 32 | 1004.9 |
| 20260504225041 | 21 | 218 | 4.8 | 12.9 | 0.00 | 0.00 | 0.00 | 32 | 1004.7 |
| 20260504224543 | 21 | 229 | 3.2 | 12.9 | 0.00 | 0.00 | 0.00 | 31 | 1004.7 |
| 20260504224045 | 21 | 246 | 3.2 | 16.1 | 0.00 | 0.00 | 0.00 | 32 | 1004.7 |
| 20260504223542 | 21 | 211 | 3.2 | 16.1 | 0.00 | 0.00 | 0.00 | 33 | 1004.8 |
| 20260504223049 | 21 | 322 | 3.2 | 12.9 | 0.00 | 0.00 | 0.00 | 33 | 1004.6 |
| 20260504222542 | 21 | 0 | 3.2 | 16.1 | 0.00 | 0.00 | 0.00 | 31 | 1004.6 |
| 20260504222044 | 21 | 294 | 6.4 | 16.1 | 0.00 | 0.00 | 0.00 | 31 | 1004.6 |
| 20260504221554 | 22 | 223 | 3.2 | 16.1 | 0.00 | 0.00 | 0.00 | 31 | 1004.8 |
| 20260504221042 | 22 | 194 | 4.8 | 17.7 | 0.00 | 0.00 | 0.00 | 31 | 1004.6 |
| 20260504220542 | 22 | 284 | 6.4 | 17.7 | 0.00 | 0.00 | 0.00 | 29 | 1004.6 |
| 20260504220110 | 22 | 0 | 1.6 | 16.1 | 0.00 | 0.00 | 0.00 | 32 | 1004.6 |
| 20260504215542 | 22 | 268 | 3.2 | 17.7 | 0.00 | 0.00 | 0.00 | 30 | 1004.7 |
| 20260504215042 | 22 | 229 | 4.8 | 17.7 | 0.00 | 0.00 | 0.00 | 31 | 1004.6 |
| 20260504214553 | 22 | 240 | 9.7 | 17.7 | 0.00 | 0.00 | 0.00 | 29 | 1004.5 |
| 20260504214042 | 22 | 233 | 3.2 | 12.9 | 0.00 | 0.00 | 0.00 | 32 | 1004.5 |
| 20260504213541 | 22 | 219 | 3.2 | 14.5 | 0.00 | 0.00 | 0.00 | 30 | 1004.6 |
| 20260504213050 | 22 | 182 | 4.8 | 22.5 | 0.00 | 0.00 | 0.00 | 31 | 1004.5 |
| 20260504212543 | 22 | 206 | 4.8 | 22.5 | 0.00 | 0.00 | 0.00 | 30 | 1004.7 |
| 20260504212039 | 22 | 211 | 6.4 | 19.3 | 0.00 | 0.00 | 0.00 | 30 | 1004.7 |
| 20260504211545 | 22 | 250 | 6.4 | 19.3 | 0.00 | 0.00 | 0.00 | 30 | 1004.7 |
| 20260504211042 | 23 | 205 | 3.2 | 17.7 | 0.00 | 0.00 | 0.00 | 30 | 1004.7 |
| 20260504210542 | 22 | 298 | 4.8 | 17.7 | 0.00 | 0.00 | 0.00 | 30 | 1004.6 |
| 20260504210052 | 22 | 180 | 6.4 | 25.7 | 0.00 | 0.00 | 0.00 | 30 | 1004.5 |
| 20260504205544 | 22 | 242 | 6.4 | 25.7 | 0.00 | 0.00 | 0.00 | 29 | 1004.5 |
| 20260504205044 | 22 | 179 | 9.7 | 24.1 | 0.00 | 0.00 | 0.00 | 31 | 1004.5 |
| 20260504204600 | 23 | 220 | 8.0 | 17.7 | 0.00 | 0.00 | 0.00 | 30 | 1004.4 |
| 20260504204043 | 22 | 232 | 3.2 | 12.9 | 0.00 | 0.00 | 0.00 | 29 | 1004.5 |
| 20260504203544 | 22 | 322 | 3.2 | 16.1 | 0.00 | 0.00 | 0.00 | 31 | 1004.6 |
| 20260504203057 | 22 | 0 | 3.2 | 19.3 | 0.00 | 0.00 | 0.00 | 29 | 1004.8 |
| 20260504202544 | 22 | 236 | 4.8 | 19.3 | 0.00 | 0.00 | 0.00 | 31 | 1004.7 |
| 20260504202044 | 22 | 229 | 4.8 | 29.0 | 0.00 | 0.00 | 0.00 | 29 | 1004.6 |
| 20260504201555 | 22 | 242 | 9.7 | 29.0 | 0.00 | 0.00 | 0.00 | 29 | 1004.7 |
| 20260504201045 | 22 | 293 | 6.4 | 16.1 | 0.00 | 0.00 | 0.00 | 29 | 1004.6 |
| 20260504200544 | 23 | 221 | 6.4 | 17.7 | 0.00 | 0.00 | 0.00 | 30 | 1004.8 |
| 20260504200100 | 23 | 329 | 8.0 | 17.7 | 0.00 | 0.00 | 0.00 | 28 | 1004.7 |
| 20260504195542 | 22 | 284 | 4.8 | 19.3 | 0.00 | 0.00 | 0.00 | 31 | 1004.6 |
| 20260504195044 | 22 | 157 | 4.8 | 27.4 | 0.00 | 0.00 | 0.00 | 32 | 1004.8 |
| 20260504194555 | 22 | 259 | 4.8 | 27.4 | 0.00 | 0.00 | 0.00 | 31 | 1004.7 |
| 20260504194047 | 21 | 200 | 4.8 | 17.7 | 0.00 | 0.00 | 0.00 | 29 | 1004.7 |
| 20260504193544 | 22 | 295 | 6.4 | 17.7 | 0.00 | 0.00 | 0.00 | 28 | 1004.9 |
| 20260504193052 | 22 | 13 | 4.8 | 22.5 | 0.00 | 0.00 | 0.00 | 29 | 1004.9 |
| 20260504192543 | 22 | 273 | 8.0 | 22.5 | 0.00 | 0.00 | 0.00 | 29 | 1004.8 |
| 20260504192043 | 22 | 198 | 6.4 | 27.4 | 0.00 | 0.00 | 0.00 | 29 | 1004.8 |
| 20260504191555 | 21 | 16 | 6.4 | 27.4 | 0.00 | 0.00 | 0.00 | 31 | 1004.7 |
| 20260504191044 | 22 | 256 | 6.4 | 19.3 | 0.00 | 0.00 | 0.00 | 28 | 1005.0 |
| 20260504190544 | 21 | 236 | 8.0 | 24.1 | 0.00 | 0.00 | 0.00 | 33 | 1005.0 |
| 20260504185544 | 21 | 193 | 9.7 | 27.4 | 0.00 | 0.00 | 0.00 | 32 | 1004.9 |
| 20260504185044 | 21 | 211 | 6.4 | 35.4 | 0.00 | 0.00 | 0.00 | 30 | 1005.0 |
| 20260504184613 | 21 | 269 | 11.3 | 35.4 | 0.00 | 0.00 | 0.00 | 28 | 1005.0 |
| 20260504184045 | 21 | 221 | 12.9 | 22.5 | 0.00 | 0.00 | 0.00 | 30 | 1004.8 |
| 20260504183545 | 21 | 248 | 8.0 | 22.5 | 0.00 | 0.00 | 0.00 | 30 | 1004.8 |
| 20260504183056 | 22 | 169 | 8.0 | 30.6 | 0.00 | 0.00 | 0.00 | 30 | 1005.0 |
| 20260504182545 | 22 | 214 | 8.0 | 30.6 | 0.00 | 0.00 | 0.00 | 32 | 1004.8 |
| 20260504182044 | 22 | 59 | 8.0 | 29.0 | 0.00 | 0.00 | 0.00 | 28 | 1005.1 |
| 20260504181552 | 21 | 244 | 9.7 | 27.4 | 0.00 | 0.00 | 0.00 | 29 | 1004.9 |
| 20260504181044 | 22 | 167 | 11.3 | 24.1 | 0.00 | 0.00 | 0.00 | 30 | 1004.9 |
| 20260504180545 | 22 | 198 | 6.4 | 27.4 | 0.00 | 0.00 | 0.00 | 32 | 1005.0 |
| 20260504180052 | 21 | 215 | 9.7 | 27.4 | 0.00 | 0.00 | 0.00 | 31 | 1005.1 |
| 20260504175543 | 21 | 184 | 9.7 | 29.0 | 0.00 | 0.00 | 0.00 | 30 | 1005.0 |
| 20260504175042 | 21 | 195 | 8.0 | 29.0 | 0.00 | 0.00 | 0.00 | 31 | 1005.2 |
| 20260504174549 | 21 | 198 | 12.9 | 27.4 | 0.00 | 0.00 | 0.00 | 30 | 1005.1 |
| 20260504174043 | 21 | 312 | 12.9 | 27.4 | 0.00 | 0.00 | 0.00 | 30 | 1005.2 |
| 20260504173541 | 21 | 195 | 6.4 | 22.5 | 0.00 | 0.00 | 0.00 | 32 | 1005.1 |
| 20260504173102 | 21 | 226 | 9.7 | 29.0 | 0.00 | 0.00 | 0.00 | 36 | 1005.2 |
| 20260504172541 | 20 | 221 | 9.7 | 29.0 | 0.00 | 0.00 | 0.00 | 33 | 1005.3 |
| 20260504172043 | 21 | 213 | 9.7 | 27.4 | 0.00 | 0.00 | 0.00 | 37 | 1005.4 |
| 20260504171551 | 21 | 225 | 11.3 | 30.6 | 0.00 | 0.00 | 0.00 | 34 | 1005.2 |
| 20260504171042 | 20 | 240 | 9.7 | 43.5 | 0.00 | 0.00 | 0.00 | 32 | 1005.2 |
| 20260504170542 | 20 | 218 | 12.9 | 43.5 | 0.00 | 0.00 | 0.00 | 31 | 1005.2 |
| 20260504151041 | 18 | 209 | 12.9 | 22.5 | 0.00 | 0.00 | 0.00 | 36 | 1006.3 |
| 20260504150540 | 18 | 182 | 11.3 | 22.5 | 0.00 | 0.00 | 0.00 | 36 | 1006.5 |
| 20260504141042 | 16 | 230 | 3.2 | 17.7 | 0.00 | 0.00 | 0.00 | 44 | 1007.5 |
| 20260504140542 | 16 | 175 | 6.4 | 17.7 | 0.00 | 0.00 | 0.00 | 42 | 1007.6 |
| 20260504130543 | 13 | 207 | 1.6 | 9.7 | 0.00 | 0.00 | 0.00 | 52 | 1008.2 |